Regional Weather Roundup
Issued by NWS

Home | Current Version | Previous Version | Text Only | Print | Product List | Glossary Off
Versions: 1 2 3 4 5 6 7 8 9 10 11 12 13 14 15 16 17 18 19 20 21 22 23 24 25 26 27 28 29 30 31 32 33 34 35 36 37 38 39 40 41 42 43 44 45 46 47 48 49 50

000
ASUS43 KOAX 230902
RWRNE

WEATHER ROUNDUP FOR NEBRASKA
NATIONAL WEATHER SERVICE OMAHA NE
400 AM CDT SUN JUL 23 2017

NOTES: SATELLITE DATA IS BEING USED TO AUGMENT CLOUD COVER ABOVE
       12000 FEET.
       "FAIR" INDICATES FEW OR NO CLOUDS BELOW 12,000 FEET WITH NO
       SIGNIFICANT WEATHER AND/OR OBSTRUCTIONS TO VISIBILITY.


NEZ001>004-019>022-054>056-231000-
NEBRASKA PANHANDLE

CITY           SKY/WX    TMP DP  RH WIND       PRES   REMARKS
SCOTTSBLUFF    CLEAR     63  52  67 E5        30.11F
ALLIANCE       CLEAR     57  48  72 CALM      30.10F
CHADRON        CLEAR     58  53  84 W5        30.08S
GORDON         FAIR      58  54  85 CALM      30.10F
KIMBALL        CLEAR     60  56  85 CALM      30.19S
SIDNEY         CLEAR     55  47  74 SW8       30.15S
$$

NEZ057>060-069>072-079>082-231000-
SOUTHWEST NEBRASKA

CITY           SKY/WX    TMP DP  RH WIND       PRES   REMARKS
NORTH PLATTE   CLEAR     55  53  93 CALM      30.05S
IMPERIAL       CLEAR     63  54  72 W5        30.08F
LEXINGTON      CLEAR     64  62  94 W6        30.02S FOG
MCCOOK         CLEAR     59  58  96 SW5       30.04R
OGALLALA       CLEAR     58  54  84 CALM      30.09S
$$

NEZ005>010-023>029-035>040-094-231000-
NORTH CENTRAL NEBRASKA

CITY           SKY/WX    TMP DP  RH WIND       PRES   REMARKS
VALENTINE      CLEAR     70  45  40 N8        30.04S
AINSWORTH      CLEAR     65  55  69 N9        30.02S
BROKEN BOW     CLEAR     62  59  90 CALM      30.01F
O`NEILL        CLEAR     67  60  78 N5        29.99S
ORD            CLEAR     61  58  90 CALM      29.97F
THEDFORD       CLEAR     62  53  74 N6        30.06R
$$

NEZ041-046>049-061>064-073>077-083>087-231000-
SOUTH CENTRAL NEBRASKA

CITY           SKY/WX    TMP DP  RH WIND       PRES   REMARKS
GRAND ISLAND   CLEAR     66  66 100 NW5       29.97S
AURORA         CLEAR     65  65  99 N5        29.96S
HASTINGS       CLEAR     69  66  90 CALM      29.98S
HEBRON         CLEAR     70  68  94 CALM      29.93F
HOLDREGE       CLEAR     66  65  96 NW3       30.00S FOG
KEARNEY        CLEAR     67  65  93 NW6       29.99S
YORK           CLEAR     66  66 100 CALM      29.95F FOG
$$

NEZ011>018-030>034-042>045-231000-
NORTHEAST NEBRASKA

CITY           SKY/WX    TMP DP  RH WIND       PRES   REMARKS
NORFOLK        FOG       63  62  97 CALM      29.96S VSB 1/2
ALBION         CLEAR     60  59  95 CALM      29.97S
BLAIR          CLEAR     72  70  96 NW5       29.92F FOG
COLUMBUS       CLEAR     60  59  96 NW5       29.95F
FREMONT        CLEAR     66  65  99 CALM      29.93F
TEKAMAH        CLEAR     68  65  90 NE5       29.92S
WAYNE          CLEAR     63  63  99 CALM      29.95F FOG
$$

NEZ050>053-065>068-078-088>093-231000-
SOUTHEAST NEBRASKA

CITY           SKY/WX    TMP DP  RH WIND       PRES   REMARKS
LINCOLN        CLEAR     69  68  96 N5        29.93S
OMAHA EPPLEY   FOG       70  67  90 W3        29.92F VSB 1/2
BEATRICE       CLEAR     72  72  98 NE3       29.92S FOG
FALLS CITY     CLEAR     71  69  93 CALM      29.89F
NEBRASKA CITY  CLEAR     73  73 100 NE3       29.92S FOG
PLATTSMOUTH    CLEAR     68  66  93 CALM      29.92F
$$

NEZ044-045-051>053-067-231000-
OMAHA AREA

CITY           SKY/WX    TMP DP  RH WIND       PRES   REMARKS
OMAHA EPPLEY   FOG       70  67  90 W3        29.92F VSB 1/2
BLAIR          CLEAR     72  70  96 NW5       29.92F FOG
FREMONT        CLEAR     66  65  99 CALM      29.93F
MILLARD        CLEAR     71  70  96 W3        29.92F FOG
OFFUTT AFB     CLEAR     67  65  95 CALM      29.91F
PLATTSMOUTH    CLEAR     68  66  93 CALM      29.92F
WAHOO          FAIR      64  63  97 CALM      29.93F FOG
$$




USA.gov is the U.S. government's official web portal to all federal, state and local government web resources and services.